Date String (YYYY-MM-DD hh:mm:ss) UTC,Instrument flags,Ambient pressure (hPa),Sample flow (lpm),Bypass flow (lpm),Sample temperature (°C),Ambient temperature (°C),ASC tube jacket temperature (°C),LED temperature (°C),Box temperature (°C),Sample RH (%),Span deviation,Mass concentration (μg/m³),Mass concentration (μg/m³),Mass concentration (μg/m³)
DateTimeUTC,F1_M11,P_M11,Q1_M11,Q2_M11,T1_M11,T2_M11,T3_M11,T4_M11,T5_M11,U1_M11,ZSPAN_M11,X0_M11,X2_M11,X1_M11
2023-01-18 02:00:00,,0814.6,4.99,0.00,22.6,21.2,00.0,31.4,24.3,15.3,-000.9,0013.22,0010.11,0009.83
2023-01-18 02:01:00,,0814.6,4.98,0.00,22.6,21.2,00.0,31.4,24.3,15.3,-001.1,0012.44,0010.10,0009.81
2023-01-18 02:02:00,,0814.4,5.01,0.00,22.6,21.1,00.0,31.4,24.3,15.3,-001.3,0012.38,0010.06,0009.79
2023-01-18 02:03:00,,0814.5,5.00,0.00,22.6,21.1,00.0,31.4,24.3,15.4,-001.4,0012.69,0010.08,0009.80
2023-01-18 02:04:00,,0814.4,5.00,0.00,22.6,21.1,00.0,31.4,24.3,15.4,-001.8,0012.99,0010.09,0009.81
2023-01-18 02:05:00,,0814.4,4.99,0.00,22.6,21.1,00.0,31.4,24.3,15.4,-001.7,0013.03,0010.06,0009.81
2023-01-18 02:06:00,,0814.4,5.01,0.00,22.6,21.1,00.0,31.4,24.3,15.4,-001.4,0013.11,0010.11,0009.84
2023-01-18 02:07:00,,0814.4,5.01,0.00,22.6,21.1,00.0,31.4,24.3,15.4,-001.4,0013.15,0010.14,0009.86
2023-01-18 02:08:00,,0814.4,5.01,0.00,22.6,21.1,00.0,31.4,24.3,15.4,-001.1,0013.09,0010.16,0009.90
2023-01-18 02:09:00,,0814.4,5.00,0.00,22.6,21.0,00.0,31.4,24.3,15.4,-001.2,0013.15,0010.18,0009.92
2023-01-18 02:10:00,,0814.4,4.99,0.00,22.6,21.0,00.0,31.3,24.3,15.4,-001.4,0013.08,0010.17,0009.93
2023-01-18 02:11:00,,0814.4,5.01,0.00,22.6,21.0,00.0,31.3,24.3,15.4,-001.6,0013.08,0010.19,0009.96
2023-01-18 02:12:00,,0814.4,5.01,0.00,22.6,21.0,00.0,31.3,24.3,15.4,-001.9,0013.07,0010.22,0010.00
2023-01-18 02:13:00,,0814.4,4.99,0.00,22.6,21.0,00.0,31.3,24.3,15.4,-002.2,0013.00,0010.27,0010.06
2023-01-18 02:14:00,,0814.4,5.00,0.00,22.6,21.0,00.0,31.3,24.3,15.4,-002.2,0012.75,0010.29,0010.09
2023-01-18 02:15:00,,0814.4,5.01,0.00,22.6,21.0,00.0,31.3,24.3,15.4,-002.1,0012.81,0010.35,0010.13
2023-01-18 02:16:00,,0814.4,4.98,0.00,22.5,21.0,00.0,31.3,24.3,15.4,-002.2,0012.78,0010.41,0010.17
2023-01-18 02:17:00,,0814.4,4.99,0.00,22.5,21.0,00.0,31.3,24.3,15.4,-002.1,0012.71,0010.40,0010.19
2023-01-18 02:18:00,,0814.4,5.00,0.00,22.5,21.0,00.0,31.3,24.3,15.4,-002.2,0012.71,0010.40,0010.21
2023-01-18 02:19:00,,0814.6,5.00,0.00,22.5,20.9,00.0,31.3,24.2,15.4,-002.3,0012.77,0010.43,0010.22
2023-01-18 02:20:00,,0814.7,5.00,0.00,22.5,20.9,00.0,31.3,24.2,15.4,-002.2,0012.79,0010.47,0010.26
2023-01-18 02:21:00,,0814.7,5.00,0.00,22.5,20.9,00.0,31.3,24.2,15.4,-002.2,0012.84,0010.54,0010.32
2023-01-18 02:22:00,,0814.7,5.00,0.00,22.5,20.9,00.0,31.3,24.2,15.4,-001.8,0012.90,0010.60,0010.37
2023-01-18 02:23:00,,0814.7,5.00,0.00,22.5,20.9,00.0,31.3,24.2,15.4,-001.8,0012.99,0010.66,0010.42
2023-01-18 02:24:00,,0814.9,5.01,0.00,22.5,21.0,00.0,31.3,24.2,15.4,-001.9,0013.05,0010.69,0010.45
2023-01-18 02:25:00,,0814.6,5.00,0.00,22.5,21.7,00.0,31.2,24.4,15.4,-001.7,0013.08,0010.73,0010.49
2023-01-18 02:26:00,,0814.6,5.01,0.00,22.6,22.6,00.0,31.3,24.6,15.3,-001.4,0012.87,0010.75,0010.53
2023-01-18 02:27:00,,0814.9,5.00,0.00,22.7,22.8,00.0,31.3,24.7,15.2,-001.3,0012.81,0010.79,0010.58
2023-01-18 02:28:00,,0814.9,4.99,0.00,22.8,22.5,00.0,31.3,24.7,15.2,-001.5,0012.86,0010.86,0010.64
2023-01-18 02:29:00,,0814.6,5.01,0.00,22.8,22.2,00.0,31.4,24.6,15.2,-001.5,0012.96,0010.94,0010.71
2023-01-18 02:30:00,,0814.6,5.01,0.00,22.8,21.9,00.0,31.4,24.6,15.2,-001.5,0012.97,0010.98,0010.76
2023-01-18 02:31:00,,0814.6,5.01,0.00,22.7,21.7,00.0,31.4,24.6,15.2,-001.4,0013.08,0011.05,0010.83
2023-01-18 02:32:00,,0814.7,5.00,0.00,22.7,21.5,00.0,31.4,24.5,15.2,-001.4,0013.18,0011.11,0010.88
2023-01-18 02:33:00,,0814.6,5.00,0.00,22.7,21.3,00.0,31.4,24.5,15.2,-001.6,0013.27,0011.19,0010.93
2023-01-18 02:34:00,,0814.6,5.03,0.00,22.7,21.2,00.0,31.4,24.4,15.2,-001.5,0013.27,0011.23,0010.98
2023-01-18 02:35:00,,0814.4,5.02,0.00,22.7,21.1,00.0,31.4,24.4,15.2,-001.2,0013.27,0011.27,0011.03
2023-01-18 02:36:00,,0814.4,5.01,0.00,22.7,21.1,00.0,31.4,24.4,15.3,-001.4,0013.28,0011.29,0011.06
2023-01-18 02:37:00,,0814.4,5.01,0.00,22.6,21.0,00.0,31.4,24.4,15.3,-001.6,0013.32,0011.32,0011.08
2023-01-18 02:38:00,,0814.4,5.02,0.00,22.6,21.0,00.0,31.4,24.3,15.3,-001.4,0013.38,0011.37,0011.12
2023-01-18 02:39:00,,0814.4,4.99,0.00,22.6,20.9,00.0,31.4,24.3,15.3,-001.1,0013.39,0011.38,0011.13
2023-01-18 02:40:00,,0814.4,5.00,0.00,22.6,20.8,00.0,31.4,24.2,15.3,-001.2,0013.37,0011.39,0011.15
2023-01-18 02:41:00,,0814.5,5.03,0.00,22.6,20.7,00.0,31.4,24.2,15.3,-001.2,0013.49,0011.45,0011.20
2023-01-18 02:42:00,,0814.9,4.99,0.00,22.5,20.7,00.0,31.4,24.2,15.3,-001.2,0013.53,0011.51,0011.25
2023-01-18 02:43:00,,0814.7,4.98,0.00,22.5,20.7,00.0,31.3,24.2,15.4,-001.5,0013.62,0011.57,0011.29
2023-01-18 02:44:00,,0814.6,4.99,0.00,22.5,20.7,00.0,31.3,24.2,15.4,-001.6,0013.69,0011.63,0011.36
2023-01-18 02:45:00,,0814.5,5.00,0.00,22.5,20.7,00.0,31.3,24.1,15.4,-001.7,0013.86,0011.73,0011.45
2023-01-18 02:46:00,,0814.8,5.00,0.00,22.4,20.7,00.0,31.3,24.1,15.4,-001.7,0013.96,0011.82,0011.52
2023-01-18 02:47:00,,0814.6,5.01,0.00,22.4,20.6,00.0,31.3,24.1,15.4,-001.7,0014.15,0011.96,0011.62
2023-01-18 02:48:00,,0814.7,5.01,0.00,22.4,20.6,00.0,31.3,24.1,15.5,-001.7,0014.26,0012.06,0011.73
2023-01-18 02:49:00,,0814.9,5.01,0.00,22.4,20.6,00.0,31.3,24.1,15.5,-001.7,0014.41,0012.18,0011.83
2023-01-18 02:50:00,,0814.8,4.99,0.00,22.4,20.6,00.0,31.2,24.1,15.5,-002.1,0014.64,0012.35,0011.98
2023-01-18 02:51:00,,0814.7,5.00,0.00,22.3,20.6,00.0,31.2,24.0,15.5,-002.3,0014.91,0012.54,0012.14
2023-01-18 02:52:00,,0814.8,4.99,0.00,22.3,20.6,00.0,31.2,24.0,15.5,-002.4,0015.00,0012.67,0012.28
2023-01-18 02:53:00,,0814.7,5.00,0.00,22.3,20.7,00.0,31.2,24.0,15.5,-002.5,0015.05,0012.77,0012.39
2023-01-18 02:54:00,,0814.5,5.01,0.00,22.3,20.7,00.0,31.2,24.0,15.5,-002.6,0015.19,0012.94,0012.56
2023-01-18 02:55:00,,0814.7,5.00,0.00,22.3,20.7,00.0,31.2,24.0,15.5,-002.6,0015.29,0013.12,0012.75
2023-01-18 02:56:00,,0814.6,5.00,0.00,22.3,20.9,00.0,31.2,24.1,15.5,-002.2,0015.42,0013.27,0012.92
2023-01-18 02:57:00,,0814.7,5.00,0.00,22.4,21.7,00.0,31.1,24.2,15.5,-002.3,0015.61,0013.44,0013.09
2023-01-18 02:58:00,,0814.7,5.01,0.00,22.5,22.6,00.0,31.1,24.5,15.4,-002.3,0015.73,0013.56,0013.21
2023-01-18 02:59:00,,0814.5,4.99,0.00,22.6,22.8,00.0,31.2,24.6,15.3,-002.3,0015.93,0013.71,0013.37
